This demonstration page uses our WeatherBlox Daily Observations layout. Learn more.

Left ArrowRight Arrow

Hourly Observations for October 2, 2022

Temp ( °F °C ) Dew Point ( °F °C ) Humidity (%) Winds ( mph kmh ) Pressure ( in mb ) Visibility ( mi km ) Precip ( " mm )
12:52 am 00:52 Clear 50 10 40 4.4 68 68 Calm 30.16 1021 10 16 0.00 0.00
1:52 am 01:52 Clear 50 10 41 5 71 71 Calm 30.17 1022 10 16 0.00 0.00
2:52 am 02:52 Clear 50 10 40 4.4 68 68 ESE 3 6 30.18 1022 10 16 0.00 0.00
3:52 am 03:52 Clear 47 8.3 39 3.9 74 74 Calm 30.18 1022 10 16 0.00 0.00
4:52 am 04:52 Clear 48 8.9 39 3.9 71 71 Calm 30.19 1022 10 16 0.00 0.00
5:52 am 05:52 Clear 46 7.8 39 3.9 76 76 Calm 30.21 1023 10 16 0.00 0.00
6:52 am 06:52 Clear 46 7.8 39 3.9 76 76 Calm 30.23 1024 10 16 0.00 0.00
7:52 am 07:52 Sunny 46 7.8 41 5 82 82 Calm 30.25 1024 10 16 0.00 0.00
8:52 am 08:52 Sunny 58 14.4 43 6.1 57 57 E 3 6 30.26 1025 10 16 0.00 0.00
9:52 am 09:52 Sunny 66 18.9 43 6.1 43 43 ESE 6 9 30.27 1025 10 16 0.00 0.00
10:52 am 10:52 Sunny 71 21.7 43 6.1 36 36 ESE 7 11 30.27 1025 10 16 0.00 0.00
11:52 am 11:52 Sunny 74 23.3 42 5.6 32 32 E 7 11 30.26 1025 10 16 0.00 0.00
12:52 pm 12:52 Sunny 76 24.4 42 5.6 30 30 Calm 30.24 1024 10 16 0.00 0.00
1:52 pm 13:52 Sunny 80 26.7 40 4.4 24 24 NE 7 11 30.22 1023 10 16 0.00 0.00
2:52 pm 14:52 Sunny 81 27.2 40 4.4 23 23 NE 13 20 30.19 1023 10 16 0.00 0.00
3:52 pm 15:52 Sunny 82 27.8 41 5 23 23 ENE 3 6 30.19 1022 10 16 0.00 0.00
4:52 pm 16:52 Sunny 81 27.2 39 3.9 22 22 E 8 13 30.19 1022 10 16 0.00 0.00
5:52 pm 17:52 Sunny 79 26.1 40 4.4 25 25 ENE 10 17 30.19 1022 10 16 0.00 0.00
6:52 pm 18:52 Sunny 74 23.3 37 2.8 26 26 E 7 11 30.20 1023 10 16 0.00 0.00
7:52 pm 19:52 Clear 68 20 40 4.4 36 36 E 7 11 30.22 1023 10 16 0.00 0.00
8:52 pm 20:52 Clear 66 18.9 41 5 40 40 ENE 6 9 30.22 1023 10 16 0.00 0.00
9:52 pm 21:52 Clear 62 16.7 41 5 46 46 Calm 30.23 1024 10 16 0.00 0.00
10:52 pm 22:52 Clear 56 13.3 43 6.1 62 62 Calm 30.23 1024 10 16 0.00 0.00
11:52 pm 23:52 Clear 55 12.8 43 6.1 64 64 ESE 3 6 30.23 1024 10 16 0.00 0.00

Powered by AerisWeather